Location: DARK SKY Beskydy - Park tmavé oblohy, www.darkskybeskydy.cz
(49.4926°N, 18.5016°E)
Time: 18:42:24
(UTC+02:00)

Vanguard 1 - All Passes

Search period start: 14 July 2024 00:00
Search period end: 24 July 2024 00:00
Orbit: 650 x 3826 km, 34.3° (Epoch: 13 July)

Date Brightness Start Highest point End Pass type
(mag) Time Alt. Az. Time Alt. Az. Time Alt. Az.
14 Jul - 03:14:25 10° S 03:27:27 18° SE 03:39:37 10° E visible
14 Jul - 05:30:14 10° SSW 05:50:02 38° SSE 06:05:20 10° E daylight
14 Jul - 07:53:14 10° WSW 08:13:21 47° S 08:26:15 10° ESE daylight
14 Jul - 10:19:27 10° W 10:35:07 36° SSW 10:44:41 10° SE daylight
14 Jul - 12:48:41 10° WSW 12:54:03 14° SW 12:58:23 10° SSW daylight
15 Jul - 03:31:13 10° S 03:46:56 24° SE 04:01:22 10° E visible
15 Jul - 05:49:20 10° SW 06:09:55 42° SSE 06:25:30 10° E daylight
15 Jul - 08:13:15 10° WSW 08:33:15 47° S 08:45:58 10° ESE daylight
15 Jul - 10:39:55 10° W 10:54:37 32° SSW 11:03:52 10° SSE daylight
16 Jul - 03:48:56 10° SSW 04:06:29 29° SE 04:22:25 10° E visible
16 Jul - 06:08:44 10° SW 06:29:51 45° SSE 06:45:31 10° ESE daylight
16 Jul - 08:33:23 10° WSW 08:53:07 46° SSW 09:05:36 10° SE daylight
16 Jul - 11:00:34 10° W 11:14:00 28° SW 11:22:48 10° SSE daylight
17 Jul - 01:55:54 10° SSE 02:04:23 13° SE 02:12:56 10° ESE visible
17 Jul - 04:07:15 10° SSW 04:26:08 34° SSE 04:43:03 10° E visible
17 Jul - 06:28:21 10° WSW 06:49:48 48° S 07:05:28 10° ESE daylight
17 Jul - 08:53:37 10° W 09:12:54 44° SSW 09:25:07 10° SE daylight
17 Jul - 11:21:28 10° W 11:33:14 23° SW 11:41:22 10° S daylight
18 Jul - 02:10:56 10° SSE 02:23:36 19° SE 02:36:27 10° E visible
18 Jul - 04:26:00 10° SSW 04:45:52 39° SSE 05:03:26 10° E daylight
18 Jul - 06:48:09 10° WSW 07:09:46 50° S 07:25:19 10° ESE daylight
18 Jul - 09:13:56 10° W 09:32:35 41° SSW 09:44:30 10° SE daylight
18 Jul - 11:42:50 10° W 11:52:21 18° SW 11:59:25 10° SSW daylight
19 Jul - 02:27:48 10° S 02:42:53 24° SE 02:58:19 10° E visible
19 Jul - 04:45:05 10° SW 05:05:41 43° SSE 05:23:39 10° E daylight
19 Jul - 07:08:06 10° WSW 07:29:44 50° S 07:45:05 10° ESE daylight
19 Jul - 09:34:23 10° W 09:52:09 37° SSW 10:03:42 10° SSE daylight
19 Jul - 12:05:14 10° WSW 12:11:19 13° SW 12:16:21 10° SSW daylight
20 Jul - 02:45:34 10° SSW 03:02:16 29° SE 03:19:26 10° E visible
20 Jul - 05:04:26 10° SW 05:25:34 47° SSE 05:43:44 10° E daylight
20 Jul - 07:28:11 10° WSW 07:49:38 49° S 08:04:45 10° ESE daylight
20 Jul - 09:54:58 10° W 10:11:33 32° SW 10:22:40 10° SSE daylight
21 Jul - 00:53:47 10° SE 01:00:44 12° SE 01:08:04 10° ESE visible
21 Jul - 03:03:54 10° SSW 03:21:46 34° SE 03:40:09 10° E visible
21 Jul - 05:24:00 10° SW 05:45:30 50° S 06:03:44 10° ESE daylight
21 Jul - 07:48:21 10° W 08:09:29 47° SSW 08:24:18 10° SE daylight
21 Jul - 10:15:46 10° W 10:30:50 27° SW 10:41:20 10° S daylight
22 Jul - 01:08:31 10° SSE 01:19:44 18° SE 01:32:05 10° E visible
22 Jul - 03:22:39 10° SSW 03:41:22 39° SSE 04:00:36 10° E visible
22 Jul - 05:43:45 10° WSW 06:05:29 51° S 06:23:39 10° ESE daylight
22 Jul - 08:08:37 10° W 08:29:14 44° SSW 08:43:43 10° SE daylight
22 Jul - 10:36:55 10° W 10:49:58 22° SW 10:59:33 10° S daylight
23 Jul - 01:25:21 10° S 01:38:51 23° SE 01:54:09 10° E visible
23 Jul - 03:41:42 10° SW 04:01:05 44° SSE 04:20:54 10° E visible
23 Jul - 06:03:37 10° WSW 06:25:27 52° S 06:43:28 10° ESE daylight
23 Jul - 08:28:59 10° W 08:48:51 40° SSW 09:02:57 10° SE daylight
23 Jul - 10:58:43 10° W 11:08:58 17° SW 11:17:02 10° SSW daylight
